[[{"header":{"parameterUnit":"m.s-1","parameterCategory":1,"la1":30.2991,"la2":30.254,"lo1":-89.0895,"lo2":-89.0444,"dy":0.0017,"dx":0.0017,"nx":28,"ny":28,"refTime":"2024-10-02T21:00:00:Z","depth":0,"parameterNumber":2,"parameterNumberName":"U-component_of_WINDS"},"data":[0,0,0,0,0,0,0,0,0,0,0,0,0,0,0,0,0,0,0,0,0,0,0,0,0,0,0,0,0,0,0,0,0,0,0,0,0,0,0,0,0,0,0,0,0,0,0,0,0,0,0,0,0,0,0,0,0,0,0.6213,0.6214,0,0.6278,0.6279,0.6279,0.6332,0.6332,0.6333,0.6333,0.6395,0.6396,0.6398,0,0,0,0,0,0,0,0,0,0,0,0,0,0.613,0.6131,0.6213,0.6214,0.6215,0.6278,0.6279,0.6279,0.6332,0.6332,0.6333,0.6333,0.6395,0.6396,0.6398,0,0,0,0,0,0,0,0,0,0,0,0,0,0.6177,0.6131,0.6213,0.6248,0.6252,0.6277,0.6279,0.628,0.6331,0.6332,0.6333,0.6334,0.6394,0.6396,0.6398,0.6392,0,0,0.6403,0.6404,0,0,0,0,0,0,0,0,0.6174,0.618,0.6242,0.6246,0.625,0.6298,0.6272,0.6317,0.6331,0.6301,0.6333,0.6334,0.6362,0.6366,0.6376,0.6395,0.6397,0.6403,0.6404,0.6405,0.6405,0,0,0,0,0,0,0,0.6171,0.6178,0.6239,0.6243,0.6248,0.6259,0.6267,0.6281,0.6326,0.6304,0.6308,0.6315,0.6364,0.6375,0.6378,0.6398,0.6403,0.6405,0.6406,0.6406,0.6413,0.6412,0,0,0,0,0,0,0.6163,0.6174,0.6236,0.624,0.6214,0.626,0.6269,0.6281,0.6326,0.6334,0.6314,0.6317,0.6371,0.6376,0.6381,0.6375,0.6405,0.6407,0.6408,0.6414,0.6413,0.6412,0,0,0,0,0,0,0.6161,0.6168,0.6234,0.6209,0.6218,0.6261,0.6275,0.6282,0.6293,0.6334,0.6342,0.6317,0.6372,0.6378,0.6389,0.6378,0.6407,0.6409,0.6415,0.6413,0.6412,0.6365,0,0,0,0,0,0,0.6158,0.6167,0.6166,0.6208,0.6219,0.6242,0.6274,0.6283,0.6296,0.6301,0.6339,0.6346,0.6373,0.6386,0.639,0.6381,0.641,0.6416,0.6414,0.6413,0.6368,0.6362,0.6358,0,0,0,0,0,0.6155,0.615,0.6166,0.6173,0.6219,0.6241,0.6247,0.6281,0.6295,0.6294,0.632,0.6344,0.6379,0.6386,0.6392,0.6383,0.6417,0.6415,0.6413,0.637,0.6363,0.6358,0,0,0,0,0,0,0.6104,0.6156,0.6175,0.6183,0.6208,0.625,0.625,0.6273,0.6293,0.6296,0.6335,0.6343,0.6348,0.6367,0.6374,0.6379,0.6401,0.64,0.6366,0.636,0.6355,0.635,0.6412,0,0,0,0,0,0.6094,0.6109,0.6153,0.6156,0.6168,0.6206,0.6217,0.6241,0.6267,0.6277,0.6304,0.6327,0.6343,0.6353,0.637,0.6371,0.6379,0.6367,0.6362,0.6358,0.6356,0.6356,0.6351,0.6405,0.6405,0.6405,0,0,0.6073,0.6104,0.611,0.6147,0.6169,0.6181,0.6215,0.6227,0.6237,0.6279,0.629,0.631,0.6339,0.6344,0.6347,0.6359,0.6343,0.6356,0.6352,0.6352,0.6353,0.6348,0.6343,0.6404,0.6404,0.6405,0,0,0.6042,0.6067,0.6072,0.6093,0.6126,0.6151,0.6152,0.6191,0.6207,0.6219,0.625,0.6261,0.6288,0.6307,0.632,0.6294,0.6316,0.6298,0.6271,0.6271,0.6266,0.6263,0.6251,0.6247,0.6297,0.6296,0.6296,0,0.6011,0.6033,0.6071,0.6081,0.6095,0.6135,0.6139,0.6157,0.6193,0.6201,0.6215,0.6249,0.6271,0.628,0.6273,0.6283,0.6284,0.6294,0.6264,0.6261,0.6258,0.6248,0.6244,0.6294,0.6294,0.6295,0.6295,0,0.5993,0.6008,0.6007,0.6042,0.6056,0.6063,0.61,0.611,0.6131,0.6155,0.6166,0.6194,0.6216,0.622,0.6242,0.6232,0.6238,0.6257,0.628,0.625,0.6241,0.6237,0.629,0.6291,0.6292,0.6293,0,0,0.5931,0.5986,0.5985,0.6001,0.6039,0.605,0.6058,0.6082,0.6088,0.6111,0.6118,0.6139,0.6157,0.6172,0.6195,0.6195,0.617,0.6214,0.6215,0.6203,0.6158,0.6142,0.6137,0.6186,0.6185,0.6185,0.6155,0,0.5904,0.5922,0.5956,0.5962,0.5975,0.6012,0.6019,0.6042,0.6064,0.6077,0.6101,0.6115,0.6138,0.6147,0.6148,0.6173,0.6161,0.6176,0.6189,0.6189,0.618,0.6133,0.6116,0.6087,0.6152,0.6151,0.6151,0,0.5875,0.5897,0.5905,0.5942,0.5948,0.5954,0.5977,0.5989,0.6015,0.6031,0.6047,0.6073,0.6081,0.6103,0.6114,0.6123,0.613,0.6143,0.6143,0.6144,0.6167,0.6131,0.6079,0.6074,0.6146,0.6147,0.6147,0,0.5827,0.5858,0.5867,0.5879,0.5922,0.5925,0.5943,0.597,0.5981,0.6001,0.6008,0.6028,0.6039,0.6053,0.6083,0.6096,0.6089,0.6114,0.6101,0.61,0.6096,0.6096,0.6043,0.6104,0.6104,0.6104,0.6104,0,0.5793,0.5795,0.5845,0.585,0.5854,0.5891,0.5893,0.5914,0.5938,0.5946,0.598,0.5987,0.6027,0.6038,0.6061,0.6065,0.607,0.6081,0.6087,0.6077,0.6076,0.6082,0.6084,0.6103,0.6103,0.6104,0.6104,0,0.5739,0.5773,0.5784,0.5824,0.5834,0.5835,0.5868,0.5873,0.5897,0.5907,0.5911,0.5948,0.5962,0.5994,0.6017,0.6032,0.603,0.6042,0.6021,0.6024,0.6009,0.6009,0.5956,0.595,0.6016,0.6016,0.6015,0,0.5714,0.5717,0.5758,0.5766,0.5783,0.5796,0.5808,0.5845,0.5855,0.5885,0.5885,0.5903,0.5918,0.5939,0.5966,0.5983,0.5995,0.5975,0.5997,0.5987,0.5992,0.5991,0.599,0.597,0.5969,0.5968,0.5967,0,0.5666,0.5682,0.5699,0.572,0.5734,0.5752,0.5773,0.5777,0.5818,0.5828,0.5843,0.5855,0.5878,0.5894,0.5915,0.5932,0.5955,0.596,0.5958,0.5947,0.5934,0.5939,0.6006,0.5961,0.5962,0.5962,0.5962,0.5963,0.5624,0.5628,0.5657,0.5674,0.5693,0.5711,0.5717,0.5742,0.5756,0.5778,0.5799,0.5812,0.5836,0.5867,0.5882,0.5891,0.5903,0.59,0.5899,0.5897,0.5892,0.5934,0.5895,0.5895,0.5896,0.5896,0.5896,0,0.5576,0.5596,0.5611,0.5639,0.5651,0.5675,0.5698,0.5706,0.5718,0.5739,0.5754,0.577,0.5786,0.5814,0.5831,0.5833,0.5844,0.5836,0.5835,0.5838,0.5881,0.5881,0.5827,0.5827,0.5827,0.5827,0.5827,0.5827,0.5552,0.5559,0.5579,0.5595,0.5615,0.5629,0.564,0.5656,0.5673,0.569,0.5704,0.5723,0.5747,0.5766,0.578,0.5788,0.5791,0.5779,0.579,0.5829,0.5836,0.5842,0.5842,0.578,0.578,0.5747,0.5746,0.5746]},{"header":{"parameterUnit":"m.s-1","parameterCategory":1,"la1":30.2991,"la2":30.254,"lo1":-89.0895,"lo2":-89.0444,"dy":0.0017,"dx":0.0017,"nx":28,"ny":28,"refTime":"2024-10-02T21:00:00:Z","depth":0,"parameterNumber":3,"parameterNumberName":"V-component_of_WINDS"},"data":[0,0,0,0,0,0,0,0,0,0,0,0,0,0,0,0,0,0,0,0,0,0,0,0,0,0,0,0,0,0,0,0,0,0,0,0,0,0,0,0,0,0,0,0,0,0,0,0,0,0,0,0,0,0,0,0,0,0,0.7415,0.7414,0,0.7376,0.7376,0.7375,0.7353,0.7352,0.7352,0.7352,0.7311,0.731,0.7309,0,0,0,0,0,0,0,0,0,0,0,0,0,0.7467,0.7466,0.7415,0.7414,0.7414,0.7376,0.7376,0.7375,0.7353,0.7352,0.7352,0.7352,0.7311,0.731,0.7309,0,0,0,0,0,0,0,0,0,0,0,0,0,0.7438,0.7466,0.7415,0.7398,0.7396,0.7376,0.7376,0.7375,0.7353,0.7352,0.7352,0.7352,0.7311,0.731,0.7308,0.7302,0,0,0.7304,0.7303,0,0,0,0,0,0,0,0,0.7439,0.7436,0.7401,0.7399,0.7397,0.7369,0.7379,0.735,0.7353,0.7369,0.7352,0.7352,0.733,0.7327,0.732,0.73,0.7298,0.7304,0.7303,0.7302,0.7301,0,0,0,0,0,0,0,0.7441,0.7437,0.7399,0.7401,0.7398,0.7392,0.7387,0.7373,0.7351,0.7368,0.7366,0.7362,0.7329,0.7321,0.7319,0.7297,0.7304,0.7302,0.7301,0.7301,0.7268,0.7268,0,0,0,0,0,0,0.7446,0.7439,0.7401,0.7398,0.7418,0.7391,0.7386,0.7378,0.7351,0.7347,0.7362,0.7361,0.7324,0.7321,0.7317,0.7307,0.7302,0.73,0.73,0.7268,0.7268,0.7268,0,0,0,0,0,0,0.7448,0.7443,0.7402,0.7418,0.7413,0.739,0.7381,0.7377,0.737,0.7347,0.7342,0.7359,0.7324,0.7319,0.7306,0.7305,0.73,0.7298,0.7268,0.7268,0.7268,0.7287,0,0,0,0,0,0,0.7449,0.7444,0.7442,0.7418,0.7412,0.7392,0.7381,0.7377,0.7368,0.7366,0.7342,0.7338,0.7323,0.7308,0.7304,0.7303,0.7297,0.7268,0.7268,0.7268,0.7286,0.7288,0.7289,0,0,0,0,0,0.7451,0.7448,0.7442,0.7437,0.7409,0.7392,0.7388,0.7372,0.7368,0.7365,0.735,0.7339,0.7306,0.7307,0.7302,0.7301,0.7268,0.7268,0.7268,0.7286,0.7288,0.7289,0,0,0,0,0,0,0.7472,0.7445,0.7437,0.7427,0.7412,0.7388,0.7385,0.7374,0.736,0.7359,0.7339,0.7333,0.7321,0.7309,0.7311,0.7292,0.7286,0.7285,0.7301,0.7302,0.7303,0.7306,0.7296,0,0,0,0,0,0.7475,0.7464,0.7441,0.7434,0.7427,0.7407,0.7399,0.7388,0.7372,0.7365,0.7349,0.7332,0.7318,0.7309,0.7295,0.7284,0.7279,0.7281,0.7282,0.7284,0.7283,0.7276,0.7277,0.7269,0.7269,0.7269,0,0,0.7482,0.7466,0.746,0.7438,0.7425,0.7414,0.7402,0.7391,0.7382,0.7363,0.7349,0.7337,0.7317,0.7305,0.7298,0.7294,0.7284,0.7284,0.7285,0.7284,0.7276,0.7277,0.7278,0.7269,0.7269,0.7269,0,0,0.7488,0.7475,0.7468,0.7455,0.7436,0.7422,0.7421,0.7398,0.7389,0.7375,0.7361,0.7349,0.7326,0.7312,0.7302,0.7303,0.7292,0.7299,0.7306,0.7299,0.7299,0.73,0.73,0.73,0.7298,0.7298,0.7298,0,0.7499,0.7482,0.7465,0.7455,0.7445,0.7428,0.7419,0.7408,0.7384,0.7378,0.7374,0.7343,0.7329,0.7313,0.7313,0.7306,0.7302,0.7301,0.7301,0.7301,0.7301,0.7301,0.7301,0.7299,0.7299,0.7299,0.7299,0,0.7496,0.7484,0.748,0.7459,0.7449,0.744,0.742,0.7412,0.7401,0.7388,0.7373,0.7355,0.7337,0.7332,0.7321,0.7314,0.7312,0.7305,0.7298,0.7303,0.7302,0.7302,0.73,0.73,0.73,0.73,0,0,0.7515,0.7484,0.7483,0.7472,0.745,0.744,0.7429,0.7412,0.7405,0.7389,0.7379,0.7359,0.7352,0.7341,0.7328,0.7322,0.7323,0.7315,0.7314,0.7317,0.7314,0.7319,0.732,0.7316,0.7316,0.7316,0.7315,0,0.7518,0.7499,0.7483,0.747,0.7458,0.7441,0.7432,0.7416,0.7403,0.7391,0.7376,0.7363,0.7354,0.7347,0.7341,0.7325,0.7322,0.7324,0.7306,0.7305,0.7312,0.7319,0.7325,0.7326,0.7315,0.7315,0.7315,0,0.7519,0.7505,0.7491,0.7468,0.7463,0.7455,0.7437,0.7426,0.7407,0.7398,0.7386,0.7372,0.7359,0.7354,0.7335,0.7337,0.7328,0.7319,0.7319,0.7316,0.7311,0.7317,0.7326,0.7326,0.7314,0.7314,0.7314,0,0.7534,0.7511,0.7499,0.7491,0.7465,0.746,0.7448,0.743,0.742,0.7404,0.7397,0.738,0.7371,0.7357,0.7339,0.7337,0.7322,0.7315,0.7314,0.7314,0.7312,0.7312,0.7319,0.7306,0.7306,0.7306,0.7306,0,0.754,0.7532,0.7506,0.7499,0.7489,0.747,0.746,0.7447,0.7431,0.742,0.7404,0.7394,0.7371,0.7358,0.7344,0.733,0.7326,0.7318,0.7314,0.7319,0.732,0.7313,0.7313,0.7306,0.7306,0.7306,0.7306,0,0.7555,0.7538,0.7524,0.75,0.7493,0.7487,0.7466,0.7458,0.7444,0.7431,0.7426,0.7404,0.7388,0.7369,0.7346,0.7337,0.7324,0.7319,0.7331,0.7329,0.7328,0.7329,0.7331,0.733,0.7318,0.7318,0.7319,0,0.756,0.7553,0.7528,0.752,0.751,0.7497,0.7487,0.7468,0.7458,0.7436,0.743,0.7413,0.7398,0.7373,0.7354,0.7337,0.7331,0.7333,0.7328,0.7333,0.733,0.7331,0.733,0.7334,0.7334,0.7334,0.7334,0,0.757,0.7561,0.7548,0.7531,0.752,0.7505,0.749,0.7484,0.7462,0.7451,0.7435,0.7424,0.7401,0.7383,0.7363,0.7351,0.7339,0.7336,0.7335,0.734,0.7347,0.7343,0.7334,0.7336,0.7336,0.7336,0.7336,0.7336,0.758,0.7573,0.7554,0.754,0.7526,0.7512,0.7504,0.7488,0.7474,0.7455,0.7444,0.7427,0.7408,0.738,0.7368,0.7354,0.735,0.7348,0.7348,0.7348,0.7349,0.7349,0.735,0.735,0.735,0.735,0.735,0,0.7589,0.7576,0.7563,0.7542,0.753,0.752,0.7503,0.7493,0.748,0.7463,0.7449,0.7429,0.7412,0.7392,0.7374,0.7366,0.736,0.7362,0.7363,0.736,0.7354,0.7357,0.7367,0.7367,0.7367,0.7367,0.7367,0.7367,0.7592,0.758,0.7569,0.7549,0.7536,0.752,0.7511,0.7498,0.7485,0.7464,0.745,0.7437,0.7419,0.7398,0.7382,0.7376,0.737,0.7374,0.7367,0.7362,0.736,0.7359,0.7361,0.7373,0.7373,0.7373,0.7373,0.7373]}]]